Change the Weather History Date:

Sunday, May 4, 2014

  Actual Average (KAPC) Record (KAPC)
Temperature  
Mean Temperature 56 °F 57 °F  
Max Temperature 66 °F 71 °F 84 °F (2011)
Min Temperature 46 °F 44 °F 36 °F (1999)
Degree Days  
Heating Degree Days 9    
Month to date heating degree days  
Since 1 July heating degree days  
Cooling Degree Days 0    
Month to date cooling degree days  
Year to date cooling degree days  
Growing Degree Days 6 (Base 50)    
Moisture  
Dew Point 51 °F    
Average Humidity 85    
Maximum Humidity 100    
Minimum Humidity 59    
Precipitation  
Precipitation 0.00 in - 0.88 in (1951)
Month to date precipitation  
Year to date precipitation  
Since 1 July precipitation  
Sea Level Pressure  
Sea Level Pressure 30.04 in    
Wind  
Wind Speed 8 mph (WNW)    
Max Wind Speed 20 mph    
Max Gust Speed 28 mph    
Visibility 10 miles    
Events      
T = Trace of Precipitation, MM = Missing Value Source: NWS Daily Summary

Daily Weather History Graph

Daily Weather History Graph

Search for Another Location

Airport or City:

Trip Planner

Search our weather history database for the weather conditions in past years. The results will help you decide how hot, cold, wet, or windy it might be!

Date:

Astronomy

May. 04, 2014 Rise Set
Actual Time 6:10 AM PDT 8:04 PM PDT
Civil Twilight 5:41 AM PDT 8:33 PM PDT
Nautical Twilight 5:06 AM PDT 9:08 PM PDT
Astronomical Twilight 4:29 AM PDT 9:46 PM PDT
Moon 10:39 AM PDT (5/4) 12:13 AM PDT (5/4)
Length of Visible Light 14h 51m
Length of Day
13h 54m
Waxing Crescent, 28% of the Moon is Illuminated
May 4
Waxing Crescent
May 6
First Quarter
May 14
Full
May 21
Last Quarter
May 28
New

Hourly Weather History & Observations

Time (PDT) Temp. Dew Point Humidity Pressure Visibility Wind Dir Wind Speed Gust Speed Precip Events Conditions
12:15 AM 50.0 °F 50.0 °F 100% 30.03 in 10.0 mi North - - N/A   Overcast
12:35 AM 51.8 °F 51.8 °F 100% 30.03 in 10.0 mi North - - N/A   Overcast
12:55 AM 51.8 °F 50.0 °F 94% 30.03 in 10.0 mi North - - N/A   Mostly Cloudy
1:15 AM 50.0 °F 50.0 °F 100% 30.03 in 10.0 mi NW 5.8 mph - N/A   Mostly Cloudy
1:35 AM 50.0 °F 50.0 °F 100% 30.03 in 10.0 mi WNW 5.8 mph - N/A   Overcast
1:55 AM 50.0 °F 50.0 °F 100% 30.03 in 10.0 mi WNW 5.8 mph - N/A   Mostly Cloudy
2:15 AM 50.0 °F 50.0 °F 100% 30.02 in 10.0 mi NW 4.6 mph - N/A   Mostly Cloudy
2:35 AM 50.0 °F 48.2 °F 94% 30.02 in 10.0 mi NW 4.6 mph - N/A   Mostly Cloudy
2:55 AM 50.0 °F 48.2 °F 94% 30.02 in 10.0 mi NW 4.6 mph - N/A   Mostly Cloudy
3:15 AM 50.0 °F 48.2 °F 94% 30.03 in 10.0 mi NW 4.6 mph - N/A   Mostly Cloudy
3:35 AM 50.0 °F 48.2 °F 94% 30.03 in 10.0 mi NW 3.5 mph - N/A   Overcast
3:55 AM 50.0 °F 48.2 °F 94% 30.03 in 10.0 mi NW 4.6 mph - N/A   Overcast
4:15 AM 50.0 °F 48.2 °F 94% 30.03 in 10.0 mi NW 4.6 mph - N/A   Overcast
4:35 AM 48.2 °F 48.2 °F 100% 30.02 in 10.0 mi NW 4.6 mph - N/A   Mostly Cloudy
4:55 AM 50.0 °F 48.2 °F 94% 30.03 in 10.0 mi NW 4.6 mph - N/A   Mostly Cloudy
5:15 AM 48.2 °F 48.2 °F 100% 30.03 in 10.0 mi Calm Calm - N/A   Overcast
5:35 AM 48.2 °F 48.2 °F 100% 30.03 in 10.0 mi WNW 3.5 mph - N/A   Scattered Clouds
5:55 AM 48.2 °F 48.2 °F 100% 30.03 in 10.0 mi West 5.8 mph - N/A   Partly Cloudy
6:15 AM 48.2 °F 48.2 °F 100% 30.03 in 10.0 mi WNW 3.5 mph - N/A   Clear
6:35 AM 46.4 °F 46.4 °F 100% 30.04 in 10.0 mi Calm Calm - N/A   Clear
6:55 AM 46.4 °F 46.4 °F 100% 30.03 in 10.0 mi Calm Calm - N/A   Clear
7:15 AM 46.4 °F 46.4 °F 100% 30.04 in 10.0 mi Calm Calm - N/A   Clear
7:35 AM 50.0 °F 50.0 °F 100% 30.05 in 10.0 mi Calm Calm - N/A   Clear
7:55 AM 51.8 °F 48.2 °F 88% 30.05 in 10.0 mi Calm Calm - N/A   Clear
8:15 AM 55.4 °F 50.0 °F 82% 30.06 in 10.0 mi Calm Calm - N/A   Clear
8:35 AM 55.4 °F 50.0 °F 82% 30.06 in 10.0 mi WNW 3.5 mph - N/A   Clear
8:55 AM 57.2 °F 50.0 °F 77% 30.06 in 10.0 mi Calm Calm - N/A   Clear
9:15 AM 57.2 °F 51.8 °F 82% 30.07 in 10.0 mi NNW 4.6 mph - N/A   Clear
9:35 AM 59.0 °F 53.6 °F 82% 30.07 in 10.0 mi NW 3.5 mph - N/A   Partly Cloudy
9:55 AM 59.0 °F 55.4 °F 88% 30.07 in 10.0 mi West 10.4 mph - N/A   Mostly Cloudy
10:15 AM 60.8 °F 53.6 °F 77% 30.07 in 10.0 mi West 11.5 mph - N/A   Scattered Clouds
10:35 AM 62.6 °F 53.6 °F 72% 30.07 in 10.0 mi West 10.4 mph 17.3 mph N/A   Partly Cloudy
10:55 AM 62.6 °F 53.6 °F 72% 30.07 in 10.0 mi West 11.5 mph - N/A   Scattered Clouds
11:15 AM 64.4 °F 53.6 °F 68% 30.07 in 10.0 mi WNW 10.4 mph 17.3 mph N/A   Partly Cloudy
11:35 AM 64.4 °F 51.8 °F 64% 30.07 in 10.0 mi WSW 15.0 mph 20.7 mph N/A   Mostly Cloudy
11:55 AM 64.4 °F 50.0 °F 59% 30.07 in 10.0 mi West 13.8 mph 20.7 mph N/A   Mostly Cloudy
12:15 PM 64.4 °F 50.0 °F 59% 30.07 in 10.0 mi West 13.8 mph - N/A   Mostly Cloudy
12:35 PM 66.2 °F 51.8 °F 60% 30.06 in 10.0 mi WSW 16.1 mph 23.0 mph N/A   Mostly Cloudy
12:55 PM 64.4 °F 53.6 °F 68% 30.06 in 10.0 mi West 17.3 mph 20.7 mph N/A   Partly Cloudy
1:15 PM 64.4 °F 53.6 °F 68% 30.07 in 10.0 mi West 16.1 mph - N/A   Clear
1:35 PM 62.6 °F 51.8 °F 68% 30.07 in 10.0 mi West 17.3 mph 24.2 mph N/A   Clear
1:55 PM 64.4 °F 53.6 °F 68% 30.06 in 10.0 mi West 19.6 mph 24.2 mph N/A   Clear
2:15 PM 64.4 °F 53.6 °F 68% 30.06 in 10.0 mi WNW 15.0 mph 20.7 mph N/A   Clear
2:35 PM 64.4 °F 53.6 °F 68% 30.06 in 10.0 mi WNW 15.0 mph 19.6 mph N/A   Clear
2:55 PM 64.4 °F 53.6 °F 68% 30.05 in 10.0 mi West 18.4 mph 24.2 mph N/A   Clear
3:15 PM 64.4 °F 53.6 °F 68% 30.04 in 10.0 mi West 13.8 mph 23.0 mph N/A   Clear
3:35 PM 64.4 °F 53.6 °F 68% 30.04 in 10.0 mi WSW 19.6 mph - N/A   Clear
3:55 PM 64.4 °F 51.8 °F 64% 30.04 in 10.0 mi West 17.3 mph 24.2 mph N/A   Clear
4:15 PM 64.4 °F 51.8 °F 64% 30.03 in 10.0 mi West 18.4 mph 27.6 mph N/A   Clear
4:35 PM 62.6 °F 51.8 °F 68% 30.03 in 10.0 mi West 19.6 mph 25.3 mph N/A   Clear
4:55 PM 62.6 °F 51.8 °F 68% 30.03 in 10.0 mi West 17.3 mph 26.5 mph N/A   Clear
5:15 PM 60.8 °F 53.6 °F 77% 30.03 in 10.0 mi West 17.3 mph 26.5 mph N/A   Clear
5:35 PM 62.6 °F 53.6 °F 72% 30.02 in 10.0 mi West 17.3 mph 21.9 mph N/A   Clear
5:55 PM 60.8 °F 53.6 °F 77% 30.02 in 10.0 mi West 18.4 mph 26.5 mph N/A   Clear
6:15 PM 59.0 °F 51.8 °F 77% 30.02 in 10.0 mi West 18.4 mph 26.5 mph N/A   Clear
6:35 PM 59.0 °F 51.8 °F 77% 30.02 in 10.0 mi West 18.4 mph 25.3 mph N/A   Clear
6:55 PM 57.2 °F 51.8 °F 82% 30.02 in 10.0 mi West 17.3 mph 26.5 mph N/A   Clear
7:15 PM 57.2 °F 51.8 °F 82% 30.02 in 10.0 mi West 12.7 mph - N/A   Clear
7:35 PM 57.2 °F 51.8 °F 82% 30.02 in 10.0 mi West 15.0 mph 23.0 mph N/A   Clear
7:55 PM 55.4 °F 53.6 °F 94% 30.02 in 10.0 mi WNW 12.7 mph - N/A   Clear
8:15 PM 55.4 °F 53.6 °F 94% 30.03 in 10.0 mi WNW 10.4 mph 16.1 mph N/A   Clear
8:35 PM 55.4 °F 51.8 °F 88% 30.03 in 10.0 mi WNW 9.2 mph - N/A   Clear
8:55 PM 55.4 °F 51.8 °F 88% 30.04 in 10.0 mi WNW 8.1 mph - N/A   Clear
9:15 PM 53.6 °F 51.8 °F 94% 30.04 in 7.0 mi WNW 6.9 mph - N/A   Partly Cloudy
9:35 PM 53.6 °F 53.6 °F 100% 30.05 in 10.0 mi NW 5.8 mph - N/A   Partly Cloudy
9:55 PM 53.6 °F 51.8 °F 94% 30.05 in 10.0 mi WNW 8.1 mph - N/A   Partly Cloudy
10:15 PM 53.6 °F 53.6 °F 100% 30.05 in 10.0 mi NW 5.8 mph - N/A   Scattered Clouds
10:35 PM 53.6 °F 53.6 °F 100% 30.05 in 10.0 mi NW 5.8 mph - N/A   Overcast
10:55 PM 53.6 °F 53.6 °F 100% 30.05 in 10.0 mi NW 6.9 mph - N/A   Overcast
11:15 PM 53.6 °F 53.6 °F 100% 30.05 in 10.0 mi NW 3.5 mph - N/A   Overcast
11:35 PM 53.6 °F 53.6 °F 100% 30.05 in 10.0 mi WNW 8.1 mph - N/A   Overcast
11:55 PM 53.6 °F 53.6 °F 100% 30.05 in 10.0 mi WNW 8.1 mph - N/A   Overcast